Dewpoint
-6 -6 -5 -5 -5 -3 -2 -1 2 4 6 3 1 -3 -8 -11 -13 -14 -14 -11 -8 -8 -4 -5 3 1 -1 -1 -1 -1 -0 -1 -5 -8 -3 -1 2 4 5 5 5 5 6 6 10
-8 -7 -7 -7 -6 -5 -1 -2 -1 1 3 4 1 -4 -10 -12 -12 -14 -18 -12 -7 -7 -6 -2 1 -1 -2 -2 -1 -1 -0 -2 -5 -3 2 1 1 2 3 3 3 3 5 8 9
-7 -7 -8 -8 -7 -6 -1 1 -1 -0 2 4 1 -5 -9 -9 -6 -14 -13 -17 -8 -8 -4 -1 -2 -1 -2 -1 -2 -2 -2 -5 -3 -1 -1 1 1 2 2 1 -0 -1 1 4 7
-7 -7 -7 -8 -8 -8 -4 1 0 -1 1 3 1 -5 -6 -5 -0 -3 -6 -10 -10 -9 1 3 -1 -2 -2 -1 -2 -2 -4 -4 -4 -3 -1 1 1 -0 -0 -1 -1 -1 -0 3 4
-7 -7 -8 -8 -8 -8 -6 0 1 -1 0 2 -0 -4 -5 -0 -4 -3 -5 -6 -7 -10 3 2 0 -2 -2 -2 -2 -2 -4 -4 -0 -0 -0 -0 0 -0 -1 -2 -2 -2 -1 -1 -0
-5 -7 -8 -8 -9 -8 -8 -1 1 -0 -1 1 -2 -4 -3 2 -4 -4 -5 -7 -8 -11 3 2 -1 -4 -4 -4 -3 -4 -4 -3 -1 -0 -0 -0 -0 -1 -2 -2 -3 -3 -3 -2 -1
-5 -7 -10 -9 -9 -8 -8 -3 0 -0 -2 -1 -3 -4 2 -1 1 -2 -7 -6 -6 -11 1 -0 -3 -4 -4 -5 -6 -5 -3 -4 -0 0 -1 -2 -0 -1 -2 -3 -3 -4 -4 -3 -2
-6 -10 -11 -13 -11 -10 -8 -3 -1 -1 -4 -3 -4 -2 -1 -5 -3 -3 0 1 -3 -3 -1 -1 -2 -4 -4 -3 -5 -4 -4 -2 -3 0 -0 -2 1 -3 -3 -4 -4 -5 -5 -5 -5
-5 -13 -16 -17 -15 -12 -7 -2 -1 -1 -5 -5 -4 1 0 -4 1 -1 -1 0 -3 -2 -2 -3 -3 -4 -4 -1 -2 -3 -1 -2 -1 -1 0 -0 -0 -4 -4 -5 -5 -6 -6 -6 -6
-7 -16 -21 -21 -16 -15 -1 -0 -1 -4 -4 -2 3 3 -5 -4 -5 5 2 -1 -1 -1 -2 -3 -3 -2 -2 -0 1 0 -1 -3 -0 -0 -1 -1 -2 -4 -5 -6 -6 -6 -7 -8 -8
-4 -18 -24 -25 -21 -10 2 4 5 5 3 -1 -3 -2 -3 -3 1 3 1 -1 -2 -3 -1 -2 1 1 -1 -2 -3 -3 -4 -3 -0 -1 -1 -1 -2 -4 -6 -6 -7 -8 -8 -8 -9
-9 -23 -28 -28 -26 -6 2 6 3 3 3 -3 0 -3 -4 -3 1 2 -0 -2 -2 -1 -2 -1 1 -1 -1 -2 -1 -2 -3 1 1 -2 -2 -3 -3 -5 -6 -7 -8 -8 -9 -9 -10
-15 -27 -29 -29 -30 -19 1 4 3 1 2 1 -1 -1 -3 -2 -2 -0 -1 -2 -2 -1 -1 1 -1 -2 -1 -1 -2 -3 -3 -2 2 -2 -4 -4 -3 -5 -7 -9 -9 -10 -10 -11 -11
-14 -23 -28 -29 -18 -16 -16 -5 3 2 1 0 1 -1 -3 -3 -2 -2 -1 -3 -3 -0 -1 -1 -2 -1 -2 -2 -3 -2 -4 -3 0 1 3 -3 2 -4 -7 -9 -11 -11 -11 -12 -12
-9 -11 -24 -25 0 -2 -0 -14 -8 1 1 -0 1 -1 -2 -2 -2 -2 -2 -2 -2 -2 -2 -1 -1 -2 -1 -2 -4 -2 -3 -2 -1 -1 1 0 2 -3 -8 -8 -10 -12 -12 -13 -13
-11 -15 -15 -6 2 1 3 1 1 5 3 3 -0 0 -1 -1 -1 -2 -3 -2 -2 -2 -2 -1 -2 -3 -2 -2 -3 -2 -2 0 -0 0 3 1 2 -2 -4 -8 -11 -12 -13 -14 -14
-3 -1 2 -2 -1 -0 3 3 3 3 -2 3 2 1 -0 1 -1 -1 -1 -1 0 1 1 0 -0 -2 -2 -0 -1 -1 2 5 5 5 5 1 2 -3 -8 -11 -12 -13 -14 -15 -15
-1 -2 3 -3 4 3 4 5 5 -3 3 1 1 1 2 0 0 -0 -1 -0 0 0 1 3 4 0 -2 -0 1 1 2 5 6 7 4 -1 0 -4 -11 -12 -13 -14 -14 -16 -17
2 2 -3 1 1 5 5 5 1 3 2 3 1 2 3 2 1 0 0 0 -1 -0 3 2 4 -3 -2 -2 -1 1 3 0 2 1 2 -3 -5 -8 -11 -12 -13 -14 -15 -16 -17
2 4 -3 4 3 5 5 2 0 -1 0 2 3 1 4 3 2 1 1 -2 -2 -5 -5 -1 4 -2 -4 -2 -2 0 -1 3 3 5 4 -1 -4 -4 -8 -11 -13 -14 -15 -16 -17
-1 3 1 3 5 5 4 -0 -1 -2 -1 -1 1 2 1 3 2 2 -0 -6 -9 -5 -8 -6 -1 -4 -2 -4 -2 -0 2 0 1 2 3 2 -2 -9 -9 -11 -13 -14 -16 -17 -17
2 -1 4 5 2 2 1 -6 -7 -4 -5 -1 -3 -4 -3 -1 0 -4 -5 -7 -9 -10 -6 -9 -4 -2 -4 -6 -8 -6 -4 -2 4 3 1 1 -5 -12 -13 -13 -14 -15 -15 -15 -16
-4 -9 1 0 1 -1 -7 -7 -7 -6 -8 -7 -4 -7 -8 -4 -1 -6 -7 -8 -6 -5 -7 -11 -6 -3 -3 -5 -6 -5 -5 -3 -2 -2 -0 -0 -5 -13 -14 -14 -14 -15 -15 -16 -16
-10 -9 -5 2 -5 -3 -5 -6 -7 -9 -9 -10 -8 -7 -5 -2 -4 -5 -7 -7 -7 -7 -6 -6 -3 -4 -2 -3 -4 -4 -5 -6 -5 -4 -4 -7 -9 -11 -13 -14 -16 -17 -16 -16 -15
-13 -9 -9 -5 -6 -5 -5 -7 -7 -8 -10 -11 -11 -8 -1 1 -1 -3 -7 -9 -10 -8 -10 -4 -3 -6 -7 -6 -7 -6 -6 -6 -7 -9 -7 -10 -11 -13 -16 -17 -17 -15 -16 -16 -15
-10 -8 -9 -11 -11 -9 -9 -7 -8 -8 -9 -11 -10 -9 -11 -8 -7 -5 -8 -9 -9 -10 -11 -9 -5 -7 -8 -9 -9 -9 -9 -8 -9 -10 -11 -12 -12 -16 -17 -16 -16 -17 -18 -17 -17
-14 -9 -8 -10 -11 -11 -10 -10 -8 -9 -11 -11 -9 -9 -8 -9 -10 -10 -9 -9 -9 -10 -10 -8 -6 -6 -7 -10 -9 -9 -11 -10 -11 -13 -11 -8 -14 -15 -16 -16 -17 -20 -19 -17 -17
Wind_Speed
9 11 10 10 10 10 9 9 10 12 11 12 12 12 12 13 13 16 21 12 15 9 13 16 16 11 9 10 8 2 3 2 4 5 5 12 20 33 24 34 44 26 26 15 17
12 10 11 11 10 11 10 9 10 11 12 11 12 11 10 10 12 21 15 17 14 13 19 24 21 15 12 11 4 3 3 3 3 6 9 22 18 12 13 24 23 27 24 20 18
11 12 11 12 12 11 10 7 10 11 12 12 11 10 10 9 6 13 12 20 20 16 16 20 20 16 9 8 6 4 4 2 5 21 27 18 35 7 12 14 19 16 16 17 19
14 12 13 12 12 12 11 8 8 11 12 12 12 11 11 11 5 1 4 16 18 18 20 19 18 16 6 5 14 3 8 1 6 12 10 8 13 31 28 16 14 15 13 12 14
15 14 12 12 11 11 11 8 6 10 12 12 12 14 14 7 8 3 3 9 20 23 27 23 18 18 5 11 12 5 3 10 28 34 34 37 29 25 28 17 13 12 13 15 13
15 15 13 11 11 10 10 8 6 9 13 14 15 17 13 4 4 10 7 11 22 26 30 27 14 20 8 6 9 12 14 15 27 24 12 24 12 10 18 14 20 19 20 19 18
15 15 14 11 10 9 8 7 5 8 12 14 16 17 11 13 4 8 9 14 22 26 29 25 10 18 8 3 12 8 5 2 21 14 12 27 16 13 20 21 22 23 23 22 22
15 14 12 13 9 8 7 5 5 6 11 14 15 16 7 8 10 4 10 15 17 25 19 20 17 11 2 4 3 6 5 4 5 17 13 10 8 14 20 25 22 20 20 21 22
16 14 12 10 8 6 4 3 3 6 10 13 15 8 6 5 17 10 11 15 23 16 13 15 12 3 4 3 3 1 5 4 5 10 8 6 13 14 20 25 21 20 21 21 21
16 14 11 8 6 4 3 6 11 10 15 14 4 7 10 9 17 18 16 19 18 17 13 10 5 3 2 4 7 6 3 4 6 4 14 21 17 15 21 24 19 18 19 21 23
19 14 10 7 5 6 15 15 9 4 15 11 11 4 10 13 18 19 18 20 14 14 5 6 4 8 10 8 6 3 4 7 5 15 12 18 16 13 18 20 18 17 18 20 21
18 14 10 7 8 13 19 10 5 3 6 24 5 13 8 15 8 21 20 14 11 6 5 3 7 7 9 7 8 7 1 5 15 12 15 16 14 11 14 16 17 17 18 19 19
17 12 9 8 10 16 23 13 7 4 2 3 20 10 12 12 8 22 24 7 5 6 7 7 6 13 8 7 7 5 8 7 11 12 14 18 7 9 11 18 18 19 19 20 20
18 11 7 7 7 11 19 17 6 3 2 4 8 7 14 10 3 21 27 6 6 12 7 5 6 9 5 6 6 4 7 7 16 5 5 11 4 5 11 11 14 16 19 19 19
15 8 6 11 8 10 4 12 12 2 1 6 6 12 15 8 14 12 24 10 7 6 7 7 6 7 5 6 7 7 1 8 12 6 6 8 4 5 12 8 9 14 17 17 16
8 2 5 9 9 9 6 13 14 3 6 5 6 6 7 5 3 7 9 5 3 3 3 3 1 3 5 3 5 6 5 7 4 3 2 8 8 7 7 10 10 15 17 16 15
8 5 4 8 7 8 11 17 3 3 2 6 5 7 7 5 5 5 7 5 5 5 4 2 2 1 2 5 5 3 6 2 1 1 5 7 8 4 9 11 16 17 16 14 14
5 7 3 5 6 11 19 2 3 4 2 1 6 12 6 7 2 6 7 5 1 2 4 6 3 6 3 3 7 6 7 5 7 5 4 6 5 5 11 19 21 19 16 13 13
3 5 6 1 7 14 9 3 3 1 4 4 7 9 4 3 5 5 7 5 2 3 6 6 3 1 4 2 2 5 7 4 3 2 3 5 4 5 12 14 18 15 13 12 10
0 1 3 0 10 15 1 6 3 2 4 3 2 7 4 9 5 5 8 3 3 2 2 2 4 1 0 3 2 2 2 3 1 4 5 2 5 5 15 14 13 13 13 9 6
1 1 2 7 11 5 3 2 3 2 4 5 4 3 2 5 8 5 2 3 5 2 2 1 4 2 3 5 1 2 2 0 2 3 4 4 2 4 13 13 12 14 12 7 4
0 2 3 13 3 1 2 2 2 2 3 2 4 3 3 4 3 4 4 3 7 3 3 1 4 4 1 0 3 3 2 1 3 3 1 3 3 4 13 17 19 15 10 4 3
2 2 2 7 2 1 3 3 3 2 1 2 1 3 4 3 4 3 4 4 8 4 3 0 2 4 1 1 2 5 3 2 2 2 2 4 3 6 16 17 15 12 6 2 1
3 2 2 3 0 3 4 3 3 2 1 2 3 2 2 4 6 4 3 3 4 3 6 1 4 2 6 3 4 5 5 3 3 3 2 2 9 5 5 8 8 6 3 1 3
5 1 2 2 3 5 4 5 4 2 1 1 2 1 5 3 2 3 3 2 4 3 4 3 4 4 7 9 9 6 6 7 4 0 3 6 7 9 5 8 7 4 3 4 5
4 4 3 2 7 2 3 3 5 3 1 3 3 4 5 3 3 7 7 4 3 2 2 2 5 3 5 7 8 7 8 11 9 5 7 6 3 4 8 7 7 2 3 5 6
8 3 2 4 3 1 2 1 3 8 6 3 11 7 13 6 19 23 22 19 9 4 3 3 5 3 2 7 6 3 2 3 4 5 2 4 4 11 4 5 4 7 8 9 9
Wind_Direction
328 325 326 331 332 331 299 259 245 235 233 227 223 220 218 218 221 223 222 214 203 179 179 167 160 166 193 208 213 209 73 209 246 157 109 40 88 77 73 74 68 77 81 88 128
321 321 321 322 324 329 313 266 243 234 223 221 218 215 212 212 223 238 227 202 191 203 179 172 166 171 205 217 212 123 119 242 288 98 99 62 81 82 79 55 53 71 93 112 140
318 315 313 315 321 325 324 289 238 230 221 213 208 201 190 189 236 259 232 217 197 192 183 177 156 170 200 194 204 188 178 215 40 122 110 100 58 90 97 51 51 56 65 85 109
310 311 312 314 315 322 328 307 248 222 217 207 194 184 177 174 181 212 233 203 190 189 176 174 174 179 171 193 204 177 251 297 50 101 95 75 93 64 73 92 93 78 71 82 81
310 305 306 309 311 314 320 312 265 218 211 198 186 179 171 208 243 245 200 170 188 183 179 185 193 188 180 192 193 214 275 126 97 88 91 94 81 96 82 86 83 78 70 61 58
311 306 299 300 303 304 310 308 274 213 203 195 183 178 177 233 202 252 243 217 192 186 180 188 195 190 208 203 169 218 222 131 114 107 95 99 91 71 91 86 67 65 59 55 51
315 304 301 291 294 298 301 301 269 214 198 191 184 179 203 225 224 254 240 219 196 187 181 185 173 196 225 242 222 164 171 149 123 124 128 98 41 88 100 85 71 62 58 55 51
316 306 299 297 287 290 297 294 245 204 187 182 176 178 235 224 223 269 139 147 179 173 183 191 207 206 189 328 89 109 87 148 157 145 178 67 112 95 96 88 73 66 60 57 51
318 304 298 292 291 281 293 283 185 168 166 167 168 181 251 201 187 184 147 154 152 167 195 204 206 168 126 91 57 142 187 182 113 155 109 102 125 110 93 87 79 71 63 58 54
319 302 293 282 265 259 156 127 110 138 139 143 143 226 228 207 187 167 169 154 157 158 140 169 164 119 86 125 191 183 191 185 158 75 84 98 111 99 88 87 82 75 66 57 51
322 305 289 266 227 190 145 128 115 135 179 190 198 233 140 148 157 173 162 158 164 154 146 188 124 195 198 194 211 76 206 187 119 129 81 108 105 95 93 87 80 72 66 59 54
323 307 287 256 212 187 177 171 152 152 241 227 215 211 181 163 136 175 171 165 157 181 144 101 225 210 199 210 221 244 276 103 76 97 91 112 95 92 89 90 89 81 68 61 55
322 306 282 247 221 202 199 184 156 168 222 227 205 206 181 172 170 184 179 184 148 183 181 163 223 196 199 219 200 207 154 182 144 94 79 118 97 114 109 103 88 76 73 62 54
320 301 263 222 214 212 218 206 216 35 46 204 187 204 189 179 160 185 185 179 183 195 166 201 246 167 177 214 165 220 169 144 151 126 177 222 159 162 139 102 87 78 70 60 51
318 298 229 192 171 172 177 202 205 208 242 153 161 163 173 173 135 173 187 223 186 182 136 227 182 176 179 197 155 217 107 160 168 160 127 188 87 132 140 125 110 90 78 67 55
348 351 176 180 178 177 168 155 147 103 242 158 142 172 139 151 111 132 166 186 168 170 86 165 261 141 183 73 156 158 89 40 78 133 237 181 161 183 193 155 125 101 85 72 58
39 59 140 158 178 179 159 150 103 176 154 166 172 158 165 145 126 160 163 175 163 126 189 104 181 154 116 83 11 114 103 58 7 267 222 200 161 69 97 109 121 111 93 76 63
37 50 99 177 165 169 161 101 217 198 56 174 138 144 176 135 138 167 142 186 149 147 138 153 222 172 187 178 180 188 160 159 191 192 200 26 139 142 117 111 109 104 97 80 63
52 41 41 160 179 171 168 202 229 338 314 354 110 166 147 127 139 149 175 159 123 173 174 164 192 354 53 17 100 208 208 190 108 256 104 114 86 128 135 125 117 108 95 80 59
31 312 313 28 171 174 173 190 138 348 332 334 226 192 166 155 138 176 174 354 123 65 329 181 116 312 101 3 29 156 184 150 32 199 210 142 171 146 169 151 130 117 105 91 59
234 246 5 139 158 168 211 61 101 83 32 20 355 332 94 174 165 187 128 13 13 43 1 38 103 247 89 18 347 358 187 26 151 182 196 156 166 321 171 148 133 122 114 103 63
229 39 147 146 102 141 119 33 355 80 354 58 356 4 35 5 71 83 128 37 353 359 165 21 100 97 97 247 40 68 95 22 153 209 29 112 161 54 98 119 122 118 116 103 39
14 44 195 180 141 139 142 92 75 57 10 95 188 323 52 51 111 85 95 14 31 52 140 223 82 98 45 329 15 67 5 342 111 65 201 143 180 142 112 99 113 120 115 108 341
352 38 26 220 357 143 155 169 131 54 61 52 145 36 53 71 23 122 114 38 32 64 27 118 74 137 176 117 114 105 37 4 94 105 174 141 149 173 126 120 114 111 122 343 293
29 46 62 329 342 304 144 135 139 172 147 189 149 205 144 139 93 118 99 103 34 28 25 78 97 86 65 72 79 71 54 27 81 60 121 159 146 176 167 152 120 130 164 241 240
40 24 11 337 317 351 23 173 149 147 307 222 180 60 80 109 225 174 139 158 181 90 96 36 126 109 59 80 91 78 29 82 72 86 79 105 92 174 134 130 152 202 279 255 255
21 348 301 342 355 55 259 330 155 136 18 149 130 98 80 78 81 87 85 75 74 110 120 98 131 108 119 125 116 41 326 40 99 53 109 166 180 158 131 151 232 287 288 258 265
Height
1471 1470 1469 1466 1465 1462 1461 1462 1464 1464 1465 1466 1469 1470 1472 1473 1476 1477 1476 1480 1482 1483 1487 1489 1494 1498 1499 1502 1501 1502 1509 1511 1505 1499 1504 1504 1504 1511 1524 1519 1521 1530 1539 1544 1542
1470 1467 1466 1464 1463 1461 1460 1459 1460 1462 1462 1465 1466 1468 1470 1472 1473 1472 1475 1477 1479 1481 1485 1486 1490 1496 1500 1500 1502 1502 1510 1503 1495 1495 1507 1510 1508 1516 1524 1528 1535 1536 1541 1542 1543
1467 1466 1464 1463 1462 1460 1458 1457 1458 1459 1461 1463 1465 1467 1469 1471 1474 1467 1469 1472 1477 1480 1484 1488 1489 1494 1498 1500 1501 1501 1506 1498 1499 1498 1497 1509 1514 1521 1524 1539 1549 1547 1546 1545 1543
1465 1463 1461 1460 1459 1458 1456 1455 1454 1457 1459 1461 1463 1466 1469 1471 1473 1466 1467 1469 1474 1479 1483 1487 1490 1493 1495 1499 1498 1501 1495 1500 1499 1499 1498 1509 1521 1534 1531 1551 1551 1549 1549 1547 1545
1463 1461 1459 1458 1457 1456 1455 1454 1453 1454 1457 1460 1462 1465 1468 1470 1466 1465 1467 1468 1473 1476 1480 1483 1488 1491 1493 1494 1497 1499 1496 1499 1501 1503 1508 1513 1526 1531 1547 1551 1551 1550 1548 1547 1547
1461 1459 1457 1456 1456 1455 1454 1453 1453 1453 1456 1458 1462 1464 1467 1469 1465 1464 1466 1467 1470 1473 1477 1482 1485 1487 1490 1491 1495 1493 1495 1500 1502 1508 1516 1517 1533 1534 1556 1553 1551 1550 1551 1551 1551
1458 1456 1455 1454 1454 1454 1453 1453 1452 1453 1455 1458 1461 1463 1465 1463 1463 1462 1463 1464 1468 1472 1477 1481 1484 1487 1487 1488 1488 1491 1496 1499 1504 1507 1521 1512 1538 1553 1556 1554 1556 1556 1557 1557 1556
1455 1454 1453 1452 1451 1452 1452 1452 1452 1452 1454 1457 1460 1462 1461 1459 1462 1461 1461 1464 1468 1474 1478 1481 1483 1485 1486 1486 1487 1491 1496 1506 1501 1506 1511 1515 1558 1558 1557 1554 1560 1561 1562 1561 1561
1453 1451 1450 1450 1449 1450 1450 1451 1451 1452 1454 1458 1461 1462 1460 1457 1459 1461 1463 1465 1469 1474 1477 1480 1482 1483 1485 1490 1496 1494 1507 1504 1502 1499 1509 1520 1554 1561 1559 1558 1564 1565 1565 1565 1564
1450 1448 1447 1447 1448 1448 1449 1450 1450 1453 1456 1460 1461 1466 1456 1455 1456 1460 1464 1467 1470 1473 1476 1479 1481 1484 1486 1494 1503 1499 1500 1499 1501 1510 1514 1533 1554 1560 1561 1562 1567 1568 1569 1568 1566
1447 1444 1444 1444 1446 1447 1448 1449 1455 1457 1455 1450 1451 1451 1450 1452 1456 1460 1463 1467 1470 1472 1477 1477 1484 1486 1483 1484 1483 1487 1492 1495 1500 1512 1523 1541 1553 1562 1565 1567 1570 1571 1571 1570 1569
1442 1441 1440 1441 1443 1444 1446 1445 1447 1450 1451 1448 1449 1450 1452 1452 1456 1459 1462 1466 1469 1473 1474 1480 1483 1478 1478 1480 1482 1485 1487 1497 1508 1516 1521 1548 1560 1566 1568 1571 1573 1573 1573 1573 1572
1438 1437 1437 1438 1440 1442 1442 1445 1445 1446 1447 1444 1445 1447 1450 1452 1453 1455 1459 1462 1465 1470 1472 1478 1471 1471 1475 1477 1480 1480 1489 1491 1496 1520 1532 1539 1564 1569 1573 1573 1575 1575 1575 1574 1573
1434 1433 1433 1435 1439 1438 1439 1444 1445 1446 1451 1444 1444 1444 1447 1450 1452 1453 1457 1461 1463 1467 1470 1472 1466 1468 1472 1474 1475 1480 1477 1481 1498 1501 1519 1522 1550 1568 1571 1575 1576 1577 1576 1575 1574
1430 1428 1430 1432 1433 1435 1439 1440 1444 1448 1457 1438 1440 1441 1442 1448 1448 1453 1456 1459 1460 1461 1466 1469 1466 1468 1471 1468 1470 1476 1470 1478 1486 1493 1501 1519 1531 1559 1566 1574 1577 1578 1577 1577 1576
1428 1427 1428 1431 1433 1436 1437 1440 1446 1452 1458 1435 1436 1438 1442 1445 1448 1451 1455 1458 1458 1459 1461 1464 1463 1464 1465 1466 1466 1470 1474 1479 1486 1494 1505 1497 1506 1554 1558 1564 1575 1578 1578 1578 1577
1429 1428 1429 1431 1433 1435 1437 1441 1450 1453 1425 1433 1434 1436 1440 1444 1448 1449 1453 1456 1460 1468 1468 1464 1465 1464 1464 1469 1469 1470 1480 1503 1504 1506 1500 1486 1500 1558 1565 1567 1571 1576 1578 1579 1578
1431 1430 1430 1431 1432 1434 1438 1443 1445 1428 1429 1424 1428 1435 1439 1442 1446 1448 1454 1458 1456 1456 1466 1472 1480 1467 1463 1466 1469 1473 1473 1488 1490 1497 1493 1495 1527 1558 1567 1570 1573 1576 1577 1578 1578
1431 1430 1430 1431 1432 1433 1438 1441 1438 1439 1438 1432 1430 1434 1436 1440 1443 1447 1452 1455 1456 1455 1457 1465 1469 1467 1466 1465 1466 1469 1473 1470 1477 1475 1490 1544 1565 1567 1568 1571 1574 1576 1577 1578 1577
1431 1430 1430 1430 1431 1435 1437 1431 1438 1441 1440 1436 1431 1428 1435 1436 1442 1446 1449 1458 1458 1457 1457 1460 1470 1467 1467 1466 1467 1467 1467 1475 1480 1482 1483 1523 1551 1543 1563 1568 1572 1575 1577 1577 1577
1431 1431 1430 1430 1432 1436 1436 1438 1438 1440 1440 1441 1440 1433 1432 1433 1435 1442 1453 1462 1460 1458 1459 1460 1461 1473 1468 1482 1481 1473 1470 1469 1470 1473 1475 1500 1527 1551 1553 1562 1569 1573 1575 1576 1576
1431 1432 1431 1431 1435 1435 1437 1441 1441 1441 1442 1442 1443 1442 1438 1437 1438 1452 1455 1459 1461 1461 1460 1463 1469 1487 1486 1485 1484 1485 1487 1483 1475 1475 1487 1489 1546 1558 1557 1563 1567 1572 1574 1575 1576
1431 1432 1432 1432 1437 1439 1440 1442 1443 1443 1444 1441 1445 1444 1442 1444 1448 1454 1461 1464 1461 1463 1464 1463 1474 1496 1487 1488 1486 1493 1496 1494 1491 1494 1498 1499 1547 1561 1562 1566 1570 1572 1574 1574 1575
1433 1435 1434 1433 1432 1433 1437 1439 1444 1444 1444 1443 1443 1445 1444 1448 1449 1456 1462 1464 1463 1464 1465 1465 1477 1482 1476 1481 1486 1497 1502 1501 1502 1512 1515 1536 1556 1564 1565 1566 1569 1571 1572 1573 1573
1434 1439 1439 1438 1435 1434 1431 1436 1441 1443 1444 1444 1444 1443 1447 1452 1456 1460 1462 1463 1464 1464 1465 1468 1482 1487 1491 1491 1496 1508 1509 1507 1515 1531 1520 1545 1553 1559 1564 1565 1568 1569 1571 1571 1571
1438 1440 1439 1438 1437 1434 1434 1434 1437 1445 1444 1442 1442 1443 1443 1448 1447 1453 1455 1461 1461 1466 1468 1470 1487 1486 1498 1497 1502 1519 1522 1518 1523 1535 1543 1548 1557 1560 1562 1564 1566 1568 1568 1568 1567
1442 1442 1442 1440 1437 1438 1440 1437 1438 1440 1443 1441 1443 1445 1449 1454 1450 1451 1455 1459 1463 1464 1468 1472 1481 1492 1510 1501 1504 1522 1543 1531 1537 1543 1542 1540 1553 1557 1562 1563 1564 1564 1564 1564 1564